TimeCDT,TemperatureF,Dew PointF,Humidity,Sea Level PressureIn,VisibilityMPH,Wind Direction,Wind SpeedMPH,Gust SpeedMPH,PrecipitationIn,Events,Conditions,WindDirDegrees,DateUTC
12:15 AM,37.9,27.3,66,30.10,10.0,NNW,10.4,-,N/A,,Clear,330,2012-10-30 05:15:00
12:35 AM,37.6,27.3,66,30.10,10.0,NNW,10.4,-,N/A,,Clear,330,2012-10-30 05:35:00
12:55 AM,37.2,27.3,67,30.09,10.0,NW,9.2,-,N/A,,Clear,320,2012-10-30 05:55:00
1:15 AM,35.6,27.3,72,30.08,10.0,NW,10.4,-,N/A,,Clear,320,2012-10-30 06:15:00
1:35 AM,35.6,27.5,72,30.08,10.0,NNW,11.5,-,N/A,,Clear,330,2012-10-30 06:35:00
1:55 AM,36.9,27.3,68,30.07,10.0,NNW,12.7,-,N/A,,Clear,330,2012-10-30 06:55:00
2:15 AM,37.0,27.3,68,30.06,10.0,NNW,13.8,-,N/A,,Clear,330,2012-10-30 07:15:00
2:35 AM,36.0,27.5,71,30.05,10.0,NW,13.8,-,N/A,,Clear,320,2012-10-30 07:35:00
2:55 AM,36.0,27.5,71,30.04,10.0,NW,15.0,-,N/A,,Clear,320,2012-10-30 07:55:00
3:15 AM,35.8,27.5,72,30.03,10.0,NW,13.8,-,N/A,,Clear,320,2012-10-30 08:15:00
3:35 AM,35.8,27.5,72,30.03,10.0,NW,15.0,-,N/A,,Clear,320,2012-10-30 08:35:00
3:55 AM,35.6,27.5,72,30.03,10.0,NNW,15.0,20.7,N/A,,Clear,330,2012-10-30 08:55:00
4:15 AM,36.5,27.5,70,30.02,10.0,NNW,16.1,21.9,N/A,,Clear,330,2012-10-30 09:15:00
4:35 AM,36.7,27.5,69,30.01,10.0,NNW,16.1,-,N/A,,Clear,330,2012-10-30 09:35:00
4:55 AM,37.4,28.4,70,30.01,10.0,NNW,15.0,-,N/A,,Clear,330,2012-10-30 09:55:00
5:15 AM,36.5,27.5,70,30.00,10.0,NW,16.1,-,N/A,,Clear,320,2012-10-30 10:15:00
5:35 AM,35.6,27.5,72,30.00,10.0,NW,15.0,-,N/A,,Clear,320,2012-10-30 10:35:00
5:55 AM,35.6,27.7,73,29.99,10.0,NW,16.1,-,N/A,,Clear,320,2012-10-30 10:55:00
6:15 AM,36.0,28.0,73,29.99,10.0,NNW,15.0,-,N/A,,Clear,330,2012-10-30 11:15:00
6:35 AM,36.7,28.2,71,29.98,10.0,NNW,13.8,20.7,N/A,,Clear,330,2012-10-30 11:35:00
6:55 AM,37.4,28.4,70,29.98,10.0,NNW,13.8,-,N/A,,Clear,330,2012-10-30 11:55:00
7:15 AM,36.5,28.2,72,29.97,10.0,NNW,15.0,21.9,N/A,,Clear,330,2012-10-30 12:15:00
7:35 AM,36.5,28.0,71,29.97,10.0,NW,15.0,-,N/A,,Clear,320,2012-10-30 12:35:00
7:55 AM,36.0,28.2,73,29.97,10.0,NW,15.0,-,N/A,,Clear,320,2012-10-30 12:55:00
8:15 AM,36.0,28.4,74,29.96,10.0,NW,15.0,-,N/A,,Clear,320,2012-10-30 13:15:00
8:35 AM,36.5,29.1,75,29.96,10.0,NW,13.8,-,N/A,,Clear,320,2012-10-30 13:35:00
8:55 AM,37.0,29.1,73,29.95,10.0,NNW,15.0,-,N/A,,Clear,330,2012-10-30 13:55:00
9:15 AM,39.6,30.0,69,29.94,10.0,NNW,20.7,-,N/A,,Clear,330,2012-10-30 14:15:00
9:35 AM,39.6,28.9,66,29.93,10.0,NNW,19.6,24.2,N/A,,Clear,340,2012-10-30 14:35:00
9:55 AM,40.8,28.2,61,29.93,10.0,NNW,19.6,28.8,N/A,,Clear,340,2012-10-30 14:55:00
10:15 AM,41.2,27.0,57,29.92,10.0,NNW,20.7,27.6,N/A,,Clear,340,2012-10-30 15:15:00
10:35 AM,42.1,26.8,55,29.91,10.0,NNW,21.9,28.8,N/A,,Clear,340,2012-10-30 15:35:00
10:55 AM,43.0,26.2,52,29.91,10.0,NNW,23.0,28.8,N/A,,Clear,330,2012-10-30 15:55:00
11:15 AM,43.9,26.2,50,29.90,10.0,NNW,23.0,28.8,N/A,,Clear,330,2012-10-30 16:15:00
11:35 AM,44.6,26.4,49,29.90,10.0,NNW,19.6,28.8,N/A,,Clear,330,2012-10-30 16:35:00
11:55 AM,44.8,26.2,48,29.89,10.0,NNW,24.2,28.8,N/A,,Clear,330,2012-10-30 16:55:00
12:15 PM,45.7,26.2,47,29.88,10.0,NNW,24.2,29.9,N/A,,Clear,330,2012-10-30 17:15:00
12:35 PM,46.0,26.1,46,29.87,10.0,NNW,23.0,26.5,N/A,,Clear,340,2012-10-30 17:35:00
12:55 PM,46.4,25.3,44,29.87,10.0,NNW,23.0,31.1,N/A,,Clear,330,2012-10-30 17:55:00
1:15 PM,47.3,24.8,41,29.86,10.0,NNW,18.4,29.9,N/A,,Clear,330,2012-10-30 18:15:00
1:35 PM,46.9,24.3,41,29.86,10.0,NNW,23.0,32.2,N/A,,Clear,330,2012-10-30 18:35:00
1:55 PM,47.8,23.4,38,29.85,10.0,NNW,26.5,31.1,N/A,,Clear,340,2012-10-30 18:55:00
2:15 PM,48.2,23.9,39,29.85,10.0,NNW,23.0,33.4,N/A,,Clear,330,2012-10-30 19:15:00
2:35 PM,49.3,23.2,36,29.84,10.0,NNW,26.5,34.5,N/A,,Clear,330,2012-10-30 19:35:00
2:55 PM,49.3,23.2,36,29.84,10.0,NNW,23.0,32.2,N/A,,Clear,330,2012-10-30 19:55:00
3:15 PM,48.9,23.2,36,29.84,10.0,NNW,21.9,33.4,N/A,,Clear,330,2012-10-30 20:15:00
3:35 PM,48.7,23.7,38,29.84,10.0,NNW,23.0,28.8,N/A,,Clear,330,2012-10-30 20:35:00
3:55 PM,48.4,24.3,39,29.84,10.0,NNW,24.2,32.2,N/A,,Clear,330,2012-10-30 20:55:00
4:15 PM,47.8,24.1,39,29.84,10.0,NNW,18.4,25.3,N/A,,Clear,330,2012-10-30 21:15:00
4:35 PM,47.7,23.9,39,29.84,10.0,NNW,21.9,29.9,N/A,,Clear,340,2012-10-30 21:35:00
4:55 PM,47.3,23.9,40,29.84,10.0,NNW,17.3,-,N/A,,Clear,340,2012-10-30 21:55:00
5:15 PM,46.4,24.6,42,29.85,10.0,NNW,18.4,25.3,N/A,,Clear,330,2012-10-30 22:15:00
5:35 PM,46.2,24.3,42,29.85,10.0,NNW,19.6,-,N/A,,Clear,340,2012-10-30 22:35:00
5:55 PM,44.6,25.3,47,29.85,10.0,NNW,13.8,-,N/A,,Clear,330,2012-10-30 22:55:00
6:15 PM,43.7,26.2,50,29.86,10.0,NNW,13.8,-,N/A,,Clear,330,2012-10-30 23:15:00
6:35 PM,43.9,25.2,48,29.86,10.0,NNW,16.1,-,N/A,,Clear,330,2012-10-30 23:35:00
6:55 PM,43.3,25.2,49,29.87,10.0,NNW,15.0,19.6,N/A,,Clear,330,2012-10-30 23:55:00
7:15 PM,42.8,24.8,49,29.87,10.0,NW,12.7,-,N/A,,Clear,320,2012-10-31 00:15:00
7:35 PM,42.3,24.8,50,29.87,10.0,NNW,12.7,-,N/A,,Scattered Clouds,330,2012-10-31 00:35:00
7:55 PM,41.0,25.2,53,29.87,10.0,NNW,13.8,-,N/A,,Clear,330,2012-10-31 00:55:00
8:15 PM,41.0,24.8,53,29.87,10.0,NNW,16.1,-,N/A,,Clear,330,2012-10-31 01:15:00
8:35 PM,41.0,25.5,54,29.87,10.0,NNW,15.0,-,N/A,,Clear,330,2012-10-31 01:35:00
8:55 PM,41.2,25.5,54,29.87,10.0,NW,12.7,-,N/A,,Clear,320,2012-10-31 01:55:00
9:15 PM,40.1,25.7,56,29.86,10.0,NW,15.0,-,N/A,,Clear,320,2012-10-31 02:15:00
9:35 PM,41.0,24.8,53,29.86,10.0,NW,13.8,-,N/A,,Clear,320,2012-10-31 02:35:00
9:55 PM,39.6,25.9,58,29.86,10.0,NW,12.7,-,N/A,,Clear,320,2012-10-31 02:55:00
10:15 PM,39.2,26.6,61,29.86,10.0,NW,11.5,-,N/A,,Clear,320,2012-10-31 03:15:00
10:35 PM,37.2,26.6,65,29.86,10.0,NW,10.4,-,N/A,,Clear,310,2012-10-31 03:35:00
10:55 PM,36.3,26.6,68,29.85,10.0,NW,10.4,-,N/A,,Clear,310,2012-10-31 03:55:00
11:15 PM,35.6,26.6,70,29.85,10.0,NW,9.2,-,N/A,,Clear,310,2012-10-31 04:15:00
11:35 PM,35.1,26.6,71,29.85,10.0,NW,8.1,-,N/A,,Clear,310,2012-10-31 04:35:00
11:55 PM,34.7,27.0,73,29.85,10.0,NW,9.2,-,N/A,,Clear,320,2012-10-31 04:55:00